[[{"header":{"parameterUnit":"m.s-1","parameterCategory":1,"la1":30.2991,"la2":30.254,"lo1":-89.0895,"lo2":-89.0444,"dy":0.0017,"dx":0.0017,"nx":28,"ny":28,"refTime":"2023-09-19T21:00:00:Z","depth":0,"parameterNumber":2,"parameterNumberName":"U-component_of_WINDS"},"data":[0,0,0,0,0,0,0,0,0,0,0,0,0,0,0,0,0,0,0,0,0,0,0,0,0,0,0,0,0,0,0,0,0,0,0,0,0,0,0,0,0,0,0,0,0,0,0,0,0,0,0,0,0,0,0,0,0,0,-1.1227,-1.1226,0,-1.1181,-1.1181,-1.118,-1.1128,-1.1127,-1.1126,-1.1125,-1.1079,-1.1079,-1.1078,0,0,0,0,0,0,0,0,0,0,0,0,0,-1.1269,-1.1269,-1.1227,-1.1226,-1.1226,-1.1182,-1.1181,-1.118,-1.1128,-1.1127,-1.1126,-1.1125,-1.1079,-1.1079,-1.1078,0,0,0,0,0,0,0,0,0,0,0,0,0,-1.124,-1.1268,-1.1227,-1.1194,-1.1191,-1.1182,-1.1181,-1.118,-1.1128,-1.1127,-1.1126,-1.1124,-1.108,-1.1079,-1.1078,-1.1098,0,0,-1.1076,-1.1076,0,0,0,0,0,0,0,0,-1.1242,-1.1239,-1.1199,-1.1196,-1.1192,-1.1159,-1.1179,-1.1153,-1.1128,-1.1152,-1.1125,-1.1124,-1.1107,-1.1104,-1.1098,-1.1096,-1.1094,-1.1076,-1.1075,-1.1075,-1.1075,0,0,0,0,0,0,0,-1.1244,-1.124,-1.1209,-1.1199,-1.1195,-1.1182,-1.1177,-1.1174,-1.1137,-1.115,-1.1146,-1.1141,-1.1105,-1.1099,-1.1096,-1.1093,-1.1076,-1.1075,-1.1075,-1.1075,-1.1106,-1.1108,0,0,0,0,0,0,-1.1251,-1.1242,-1.121,-1.1207,-1.1215,-1.1182,-1.1176,-1.1171,-1.1136,-1.113,-1.1142,-1.1139,-1.11,-1.1097,-1.1095,-1.1116,-1.1075,-1.1074,-1.1074,-1.1105,-1.1107,-1.1108,0,0,0,0,0,0,-1.1252,-1.1248,-1.1212,-1.1224,-1.1218,-1.1183,-1.1177,-1.1171,-1.1165,-1.1131,-1.1124,-1.1143,-1.1099,-1.1096,-1.1098,-1.1114,-1.1074,-1.1073,-1.1104,-1.1106,-1.1107,-1.1159,0,0,0,0,0,0,-1.1253,-1.1249,-1.1256,-1.1224,-1.1218,-1.1216,-1.1178,-1.1171,-1.1164,-1.1159,-1.113,-1.1124,-1.1098,-1.1099,-1.1097,-1.1112,-1.1073,-1.1102,-1.1104,-1.1107,-1.1155,-1.1162,-1.1168,0,0,0,0,0,-1.1255,-1.1271,-1.1256,-1.1253,-1.1225,-1.1217,-1.1213,-1.1183,-1.1165,-1.1172,-1.115,-1.1124,-1.1113,-1.11,-1.1097,-1.1112,-1.1101,-1.1104,-1.1107,-1.1152,-1.1161,-1.1168,0,0,0,0,0,0,-1.1305,-1.1267,-1.1249,-1.1256,-1.124,-1.1208,-1.1215,-1.1193,-1.1181,-1.1177,-1.1141,-1.1135,-1.1142,-1.1127,-1.1114,-1.113,-1.1103,-1.1106,-1.1139,-1.1146,-1.1153,-1.1156,-1.1072,0,0,0,0,0,-1.1317,-1.1313,-1.128,-1.1289,-1.1282,-1.125,-1.1245,-1.1224,-1.1206,-1.1199,-1.1177,-1.1161,-1.1154,-1.1149,-1.1141,-1.1154,-1.1147,-1.1163,-1.1169,-1.1174,-1.1176,-1.1183,-1.119,-1.1117,-1.1117,-1.1117,0,0,-1.1341,-1.132,-1.1319,-1.1299,-1.1284,-1.1281,-1.1245,-1.1243,-1.124,-1.1198,-1.1199,-1.1183,-1.1163,-1.1171,-1.1173,-1.1159,-1.1195,-1.1178,-1.1182,-1.1181,-1.1187,-1.1194,-1.12,-1.1119,-1.1119,-1.1119,0,0,-1.1384,-1.1368,-1.1374,-1.136,-1.1338,-1.1317,-1.1319,-1.129,-1.1278,-1.1279,-1.1248,-1.1245,-1.1232,-1.1219,-1.1211,-1.1252,-1.1228,-1.1251,-1.1283,-1.129,-1.1295,-1.13,-1.1315,-1.1321,-1.1253,-1.1253,-1.1253,0,-1.1417,-1.1411,-1.138,-1.138,-1.1373,-1.1336,-1.1342,-1.133,-1.1307,-1.1303,-1.1287,-1.1272,-1.1256,-1.126,-1.1271,-1.1265,-1.1267,-1.1253,-1.1297,-1.1302,-1.1306,-1.132,-1.1325,-1.1256,-1.1256,-1.1255,-1.1255,0,-1.1453,-1.145,-1.1457,-1.1436,-1.1429,-1.1433,-1.1403,-1.14,-1.1381,-1.1362,-1.1364,-1.1343,-1.133,-1.133,-1.131,-1.1333,-1.1324,-1.1304,-1.1276,-1.1316,-1.1328,-1.1333,-1.126,-1.1259,-1.1258,-1.1258,0,0,-1.1524,-1.1487,-1.149,-1.1481,-1.1455,-1.1452,-1.1455,-1.1442,-1.1441,-1.1427,-1.1429,-1.142,-1.1402,-1.1392,-1.1371,-1.1378,-1.1412,-1.1356,-1.1355,-1.1367,-1.1437,-1.1452,-1.1459,-1.1397,-1.1398,-1.1399,-1.1438,0,-1.1562,-1.1564,-1.1537,-1.1546,-1.1543,-1.1509,-1.1512,-1.1497,-1.148,-1.1476,-1.1457,-1.1452,-1.1427,-1.1422,-1.1427,-1.1407,-1.1426,-1.1404,-1.1398,-1.1399,-1.1404,-1.1465,-1.1481,-1.1519,-1.1443,-1.1444,-1.1444,0,-1.1606,-1.1594,-1.1604,-1.1579,-1.1577,-1.158,-1.1567,-1.1563,-1.1546,-1.1533,-1.1525,-1.1501,-1.1503,-1.1478,-1.148,-1.1466,-1.1463,-1.1453,-1.1454,-1.1451,-1.1423,-1.1464,-1.153,-1.1536,-1.1452,-1.1451,-1.145,0,-1.1657,-1.1644,-1.1648,-1.1641,-1.1613,-1.1616,-1.1604,-1.1586,-1.158,-1.157,-1.1566,-1.1556,-1.1551,-1.1544,-1.1518,-1.1502,-1.1525,-1.1497,-1.1514,-1.1515,-1.1519,-1.1519,-1.1586,-1.1519,-1.1518,-1.1518,-1.1518,0,-1.1701,-1.1708,-1.1671,-1.1674,-1.1681,-1.1651,-1.166,-1.1645,-1.1629,-1.1629,-1.1599,-1.16,-1.1567,-1.1564,-1.1544,-1.155,-1.1548,-1.1538,-1.1533,-1.154,-1.1541,-1.1537,-1.1533,-1.152,-1.1519,-1.1519,-1.1519,0,-1.1759,-1.1734,-1.1737,-1.171,-1.1703,-1.171,-1.1687,-1.1689,-1.1672,-1.1672,-1.167,-1.1642,-1.1637,-1.1612,-1.1601,-1.1588,-1.1601,-1.159,-1.1606,-1.1603,-1.1622,-1.1621,-1.1687,-1.1695,-1.1623,-1.1624,-1.1625,0,-1.1789,-1.1793,-1.1768,-1.1765,-1.1755,-1.1752,-1.1747,-1.1718,-1.1714,-1.1697,-1.1701,-1.1694,-1.1686,-1.1681,-1.166,-1.1652,-1.1641,-1.1665,-1.164,-1.1648,-1.1641,-1.1641,-1.1642,-1.167,-1.1671,-1.1672,-1.1673,0,-1.1844,-1.1832,-1.1826,-1.1816,-1.1811,-1.1802,-1.1791,-1.1791,-1.1759,-1.1757,-1.1752,-1.1746,-1.1736,-1.173,-1.1719,-1.1707,-1.1685,-1.1681,-1.1685,-1.1692,-1.1702,-1.1697,-1.1621,-1.1679,-1.1679,-1.1678,-1.1678,-1.1678,-1.1888,-1.1892,-1.1874,-1.1869,-1.1858,-1.1849,-1.185,-1.1832,-1.1828,-1.1817,-1.1801,-1.1799,-1.1783,-1.1766,-1.1757,-1.1755,-1.1742,-1.1747,-1.1749,-1.175,-1.1755,-1.1703,-1.1753,-1.1753,-1.1753,-1.1752,-1.1752,0,-1.1943,-1.193,-1.1926,-1.1912,-1.1908,-1.1888,-1.1875,-1.1873,-1.1872,-1.1859,-1.1853,-1.1848,-1.1843,-1.1822,-1.1815,-1.1817,-1.1807,-1.1816,-1.1816,-1.1814,-1.1766,-1.1764,-1.1825,-1.1825,-1.1825,-1.1825,-1.1825,-1.1825,-1.197,-1.1975,-1.1961,-1.1961,-1.1948,-1.1946,-1.194,-1.1932,-1.1922,-1.1918,-1.1914,-1.19,-1.1885,-1.1877,-1.1871,-1.1865,-1.1864,-1.1877,-1.1868,-1.1824,-1.1817,-1.181,-1.1807,-1.1877,-1.1877,-1.1915,-1.1915,-1.1915]},{"header":{"parameterUnit":"m.s-1","parameterCategory":1,"la1":30.2991,"la2":30.254,"lo1":-89.0895,"lo2":-89.0444,"dy":0.0017,"dx":0.0017,"nx":28,"ny":28,"refTime":"2023-09-19T21:00:00:Z","depth":0,"parameterNumber":3,"parameterNumberName":"V-component_of_WINDS"},"data":[0,0,0,0,0,0,0,0,0,0,0,0,0,0,0,0,0,0,0,0,0,0,0,0,0,0,0,0,0,0,0,0,0,0,0,0,0,0,0,0,0,0,0,0,0,0,0,0,0,0,0,0,0,0,0,0,0,0,3.0067,3.0067,0,3.0054,3.0054,3.0054,3.0106,3.0107,3.0109,3.011,3.009,3.0088,3.0086,0,0,0,0,0,0,0,0,0,0,0,0,0,3.013,3.0129,3.0067,3.0067,3.0067,3.0054,3.0054,3.0054,3.0105,3.0107,3.0109,3.0111,3.0091,3.0088,3.0086,0,0,0,0,0,0,0,0,0,0,0,0,0,3.0108,3.0128,3.0067,3.0091,3.0093,3.0054,3.0054,3.0054,3.0105,3.0107,3.011,3.0112,3.0091,3.0088,3.0086,3.0021,0,0,3.0076,3.0075,0,0,0,0,0,0,0,0,3.0109,3.0106,3.0088,3.0089,3.0092,3.0084,3.0069,3.0043,3.0104,3.01,3.011,3.0113,3.0086,3.0083,3.0076,3.002,3.0019,3.0076,3.0074,3.0073,3.0072,0,0,0,0,0,0,0,3.0111,3.0107,3.0062,3.0087,3.009,3.01,3.01,3.0064,3.008,3.0101,3.0104,3.0103,3.0087,3.0078,3.0075,3.0019,3.0076,3.0074,3.0072,3.0071,2.9909,2.9907,0,0,0,0,0,0,3.011,3.0108,3.0062,3.0061,3.0107,3.0097,3.0097,3.0084,3.008,3.0082,3.0101,3.0105,3.0082,3.0079,3.0075,2.9999,3.0073,3.007,3.0069,2.9912,2.9909,2.9906,0,0,0,0,0,0,3.0111,3.0106,3.0063,3.0086,3.0081,3.0094,3.0079,3.0082,3.0074,3.0081,3.0083,3.0089,3.0084,3.0079,3.0035,2.9999,3.0069,3.0066,2.9915,2.9911,2.9908,2.9846,0,0,0,0,0,0,3.0113,3.0106,3.0083,3.0085,3.008,3.0024,3.0077,3.0081,3.0069,3.0075,3.007,3.0072,3.0085,3.0039,3.0032,2.9996,3.0064,2.9918,2.9913,2.9909,2.9852,2.9841,2.9832,0,0,0,0,0,3.0115,3.0064,3.0081,3.0075,3.0051,3.0022,3.0019,3.0038,3.0066,3.0042,3.0047,3.0072,3.0004,3.0034,3.0026,2.9989,2.992,2.9915,2.9909,2.9856,2.9843,2.9832,0,0,0,0,0,0,3.0055,3.0065,3.0084,3.0033,3.0026,3.0031,3.0001,3.0023,3.0007,3.0012,3.0034,3.0033,2.9984,2.9982,3.0015,2.9927,2.9967,2.996,2.9929,2.9917,2.9907,2.9908,3.0062,0,0,0,0,0,3.0036,3.0013,3.0023,2.9977,2.9973,2.9987,2.9975,2.9991,2.9984,2.9981,2.9982,2.9972,2.9949,2.9933,2.9912,2.9852,2.9851,2.9823,2.9813,2.9805,2.9798,2.9766,2.9753,2.9888,2.9888,2.9888,0,0,2.9996,2.9999,2.9983,2.9965,2.9962,2.9936,2.9985,2.9955,2.9936,2.9975,2.9934,2.9935,2.9925,2.9873,2.985,2.987,2.9761,2.9798,2.9792,2.9789,2.9759,2.9746,2.9735,2.9884,2.9885,2.9885,0,0,2.991,2.9911,2.9872,2.9869,2.9865,2.9875,2.9866,2.9867,2.987,2.9829,2.9859,2.9835,2.9795,2.9787,2.9778,2.9691,2.9713,2.9683,2.9631,2.9599,2.9589,2.9579,2.9547,2.9536,2.9676,2.9676,2.9676,0,2.986,2.9825,2.9849,2.9818,2.9809,2.9847,2.9808,2.9802,2.979,2.9782,2.9806,2.9757,2.9753,2.9699,2.9678,2.967,2.9659,2.9683,2.9589,2.958,2.9571,2.9541,2.9529,2.9672,2.9673,2.9673,2.9674,0,2.9763,2.9738,2.9708,2.9698,2.9685,2.965,2.9668,2.9651,2.9668,2.9675,2.9633,2.9631,2.961,2.9599,2.9613,2.9547,2.9559,2.9586,2.9626,2.9554,2.9526,2.9515,2.9667,2.9669,2.967,2.9671,0,0,2.9637,2.9643,2.9632,2.9628,2.9627,2.9606,2.9573,2.9555,2.954,2.9531,2.9502,2.9468,2.9493,2.9482,2.9497,2.9469,2.9399,2.9499,2.9499,2.948,2.9325,2.9304,2.9291,2.9415,2.9413,2.9411,2.9325,0,2.9553,2.9497,2.9519,2.9461,2.9438,2.9474,2.9444,2.9439,2.9445,2.9425,2.9431,2.9406,2.9441,2.9435,2.9409,2.9413,2.9368,2.942,2.9386,2.9385,2.9386,2.9276,2.9254,2.9173,2.9315,2.9313,2.9311,0,2.9446,2.9435,2.9376,2.9379,2.937,2.9344,2.9329,2.931,2.9305,2.9311,2.93,2.9321,2.9286,2.9329,2.928,2.9315,2.9302,2.9302,2.93,2.9296,2.9343,2.9268,2.9148,2.9135,2.9294,2.9296,2.9297,0,2.9359,2.933,2.929,2.9286,2.9289,2.927,2.927,2.9267,2.9255,2.9242,2.9234,2.9217,2.9206,2.9191,2.9206,2.9236,2.9155,2.9198,2.9157,2.9157,2.9137,2.9138,2.9012,2.9131,2.9131,2.9132,2.9132,0,2.9262,2.9223,2.9252,2.9227,2.9185,2.921,2.9167,2.9171,2.9168,2.9144,2.9174,2.915,2.9172,2.9149,2.916,2.9118,2.9113,2.9116,2.9119,2.9113,2.9112,2.9104,2.9109,2.9128,2.9129,2.913,2.913,0,2.9157,2.9174,2.9134,2.9141,2.9142,2.9111,2.9116,2.9093,2.9102,2.9071,2.9065,2.9078,2.9053,2.9068,2.9041,2.9049,2.8994,2.9005,2.8996,2.8999,2.8957,2.896,2.882,2.8802,2.8933,2.8932,2.8931,0,2.9093,2.9065,2.907,2.9058,2.9056,2.9035,2.9024,2.9047,2.9034,2.9026,2.9003,2.8982,2.8966,2.8924,2.893,2.891,2.892,2.8873,2.8917,2.8912,2.8918,2.892,2.8916,2.8863,2.8861,2.886,2.8859,0,2.8977,2.8988,2.8972,2.8959,2.8946,2.8936,2.8928,2.8916,2.8939,2.8922,2.8899,2.8886,2.8861,2.8839,2.8822,2.882,2.8842,2.8846,2.8835,2.8827,2.8823,2.8824,2.8971,2.8848,2.8849,2.885,2.8851,2.8851,2.8891,2.8868,2.8868,2.8849,2.8847,2.8839,2.8818,2.8826,2.8807,2.879,2.8805,2.8776,2.8772,2.8752,2.8747,2.8724,2.8743,2.8727,2.8723,2.8719,2.8713,2.8828,2.8721,2.8721,2.8721,2.8722,2.8722,0,2.8776,2.8779,2.8762,2.8752,2.8736,2.8763,2.8756,2.8741,2.8716,2.8711,2.8696,2.8668,2.8647,2.8652,2.8633,2.8613,2.8623,2.8607,2.8608,2.8607,2.8697,2.8708,2.8599,2.8599,2.8599,2.8599,2.8599,2.8599,2.8715,2.8677,2.8688,2.8649,2.8651,2.8626,2.8619,2.8612,2.8609,2.8578,2.8561,2.8566,2.8564,2.8545,2.8526,2.8528,2.8519,2.8499,2.8504,2.8588,2.86,2.8612,2.8622,2.8497,2.8497,2.8416,2.8415,2.8414]}]]